Location: Cantarrana
(10.3575°N, 66.9340°W)
Time: 09:42:32
(UTC+00:00)

Nadezhda 2 Rocket - Visible Passes

Search period start: 27 June 2022 00:00
Search period end: 07 July 2022 00:00
Orbit: 946 x 1012 km, 83.0° (Epoch: 26 June)

Date Brightness Start Highest point End Pass type
(mag) Time Alt. Az. Time Alt. Az. Time Alt. Az.
27 Jun 5.2 00:16:46 10° NNE 00:22:14 33° E 00:22:36 32° E visible
27 Jun 6.5 02:02:55 10° NW 02:07:20 20° W 02:07:23 20° W visible
28 Jun 4.4 00:42:32 10° N 00:48:44 73° E 00:49:37 63° SE visible
28 Jun 6.2 23:27:32 10° ENE 23:29:53 12° E 23:31:54 11° ESE visible
29 Jun 5.1 01:09:12 10° NNW 01:15:11 52° W 01:16:42 43° SW visible
29 Jun 5.3 23:51:11 10° NNE 23:56:28 29° E 23:59:00 22° ESE visible
30 Jun 6.4 01:36:49 10° NW 01:41:36 23° W 01:43:48 19° WSW visible
01 Jul 4.5 00:16:49 10° N 00:22:59 64° E 00:26:11 30° SSE visible
02 Jul 5.0 00:43:20 10° NNW 00:49:27 59° W 00:53:25 23° SSW visible
02 Jul 5.5 23:25:39 10° NNE 23:30:43 26° E 23:35:50 10° SE visible
03 Jul 6.3 01:10:47 10° NW 01:15:52 26° W 01:20:43 11° SW visible
03 Jul 4.6 23:51:06 10° N 23:57:14 57° E 00:03:16 11° SSE visible
04 Jul 7.2 01:40:43 10° WNW 01:42:14 11° W 01:43:45 10° WSW visible
05 Jul 4.8 00:17:30 10° NNW 00:23:43 67° W 00:30:02 10° S visible
06 Jul 6.2 00:44:47 10° NNW 00:50:08 30° W 00:55:35 10° SSW visible
06 Jul 4.7 23:25:25 10° N 23:31:29 50° E 23:37:38 10° SSE visible
